USA 115 (MILSTAR-1 2)

Last updated on Thu Nov 21 2024 00:02:40 GMT+0000 (Coordinated Universal Time)

1 23712U 95060A 24325.45355025 -.00000022 00000+0 00000+0 0 9993 2 23712 13.8604 7.9149 0004129 259.1037 196.2067 1.00271308 27138
UTC large
Height (km)
Speed (km/s)
/
Latitude / Longitude
Inclination (degrees)
Orbital Period (minutes)
Azimuth
Elevation
Range (km)
Doppler Factor

Next 0 passes for location: London (51.5072 / 0.1276)

Sorry there are no passes over London.